Stündliche Wetter Otrada

Heute, 10 April, Samstag

Zeit Temperatur Niederschläge Wind Luftdruck Luftfeuchtigkeit
00:00 +3°C° 0 mm 1 m/S 749 mmHg 63%
01:00 +3°C° 0 mm 1 m/S 749 mmHg 65%
02:00 +3°C° 0 mm 1 m/S 749 mmHg 68%
03:00 +2°C° 0 mm 1 m/S 749 mmHg 69%
04:00 +2°C° 0 mm 1 m/S 749 mmHg 70%
05:00 +2°C° 0 mm 1 m/S 750 mmHg 71%
06:00 +4°C° 0 mm 1 m/S 750 mmHg 66%
07:00 +5°C° 0 mm 1 m/S 750 mmHg 62%
08:00 +6°C° 0 mm 1 m/S 750 mmHg 58%
09:00 +7°C° 0 mm 1 m/S 750 mmHg 54%
10:00 +8°C° 0 mm 1 m/S 750 mmHg 50%
11:00 +9°C° 0 mm 1 m/S 749 mmHg 47%
12:00 +10°C° 0 mm 1 m/S 749 mmHg 44%
13:00 +10°C° 0 mm 1 m/S 749 mmHg 41%
14:00 +11°C° 0 mm 1 m/S 749 mmHg 39%
15:00 +11°C° 0 mm 1 m/S 749 mmHg 39%
16:00 +10°C° 0 mm 1 m/S 749 mmHg 40%
17:00 +10°C° 0 mm 1 m/S 748 mmHg 40%
18:00 +9°C° 0 mm 1 m/S 749 mmHg 43%
19:00 +8°C° 0 mm 1 m/S 749 mmHg 47%
20:00 +6°C° 0 mm 0 m/S 749 mmHg 50%
21:00 +7°C° 0 mm 1 m/S 749 mmHg 52%
22:00 +6°C° 0 mm 1 m/S 750 mmHg 54%
23:00 +5°C° 0 mm 1 m/S 750 mmHg 56%

Morgen, 11 April, Sonntag

Zeit Temperatur Niederschläge Wind Luftdruck Luftfeuchtigkeit
00:00 +5°C° 0 mm 1 m/S 750 mmHg 58%
01:00 +4°C° 0 mm 1 m/S 750 mmHg 60%
02:00 +3°C° 0 mm 2 m/S 750 mmHg 62%
03:00 +4°C° 0 mm 1 m/S 750 mmHg 62%
04:00 +3°C° 0 mm 1 m/S 750 mmHg 63%
05:00 +3°C° 0 mm 1 m/S 751 mmHg 63%
06:00 +5°C° 0 mm 1 m/S 751 mmHg 59%
07:00 +6°C° 0 mm 1 m/S 751 mmHg 54%
08:00 +8°C° 0 mm 1 m/S 752 mmHg 50%
09:00 +9°C° 0 mm 1 m/S 752 mmHg 46%
10:00 +9°C° 0 mm 2 m/S 752 mmHg 43%
11:00 +10°C° 0 mm 2 m/S 752 mmHg 39%
12:00 +12°C° 0 mm 2 m/S 752 mmHg 38%
13:00 +12°C° 0 mm 3 m/S 751 mmHg 36%
14:00 +12°C° 0 mm 3 m/S 751 mmHg 35%
15:00 +12°C° 0 mm 3 m/S 751 mmHg 39%
16:00 +11°C° 0 mm 3 m/S 751 mmHg 42%
17:00 +11°C° 0 mm 3 m/S 751 mmHg 46%
18:00 +10°C° 0 mm 3 m/S 751 mmHg 51%
19:00 +8°C° 0 mm 3 m/S 751 mmHg 56%
20:00 +7°C° 0 mm 3 m/S 751 mmHg 61%
21:00 +7°C° 0 mm 3 m/S 751 mmHg 64%
22:00 +5°C° 0 mm 3 m/S 751 mmHg 66%
23:00 +4°C° 0 mm 3 m/S 751 mmHg 69%

übermorgen, 12 April, Montag

Zeit Temperatur Niederschläge Wind Luftdruck Luftfeuchtigkeit
00:00 +4°C° 0 mm 3 m/S 751 mmHg 69%
01:00 +4°C° 0 mm 4 m/S 751 mmHg 69%
02:00 +4°C° 0 mm 4 m/S 750 mmHg 69%
03:00 +4°C° 0 mm 4 m/S 750 mmHg 71%
04:00 +4°C° 0 mm 4 m/S 750 mmHg 72%
05:00 +4°C° 0 mm 4 m/S 750 mmHg 73%
06:00 +4°C° 0 mm 4 m/S 750 mmHg 75%
07:00 +5°C° 0 mm 4 m/S 749 mmHg 77%
08:00 +6°C° 0 mm 4 m/S 749 mmHg 79%
09:00 +7°C° 0 mm 4 m/S 749 mmHg 77%
10:00 +10°C° 0 mm 4 m/S 749 mmHg 75%
11:00 +11°C° 0 mm 4 m/S 748 mmHg 73%
12:00 +13°C° 0 mm 4 m/S 748 mmHg 69%
13:00 +14°C° 0 mm 4 m/S 748 mmHg 65%
14:00 +15°C° 0 mm 4 m/S 748 mmHg 61%
15:00 +15°C° 0 mm 4 m/S 747 mmHg 63%
16:00 +16°C° 0 mm 3 m/S 747 mmHg 65%
17:00 +14°C° 0 mm 3 m/S 747 mmHg 67%
18:00 +14°C° 0 mm 3 m/S 747 mmHg 69%
19:00 +13°C° 0 mm 3 m/S 747 mmHg 70%
20:00 +12°C° 0 mm 3 m/S 747 mmHg 72%
21:00 +11°C° 0 mm 3 m/S 747 mmHg 73%
22:00 +11°C° 0 mm 3 m/S 747 mmHg 74%
23:00 +11°C° 0 mm 3 m/S 747 mmHg 75%

13 April, Dienstag

Zeit Temperatur Niederschläge Wind Luftdruck Luftfeuchtigkeit
00:00 +10°C° 0 mm 3 m/S 747 mmHg 75%
01:00 +10°C° 0 mm 3 m/S 747 mmHg 75%
02:00 +10°C° 0 mm 3 m/S 747 mmHg 76%
03:00 +10°C° 0 mm 3 m/S 747 mmHg 78%
04:00 +9°C° 0 mm 3 m/S 747 mmHg 80%
05:00 +9°C° 0 mm 3 m/S 746 mmHg 82%
06:00 +9°C° 0 mm 3 m/S 746 mmHg 81%
07:00 +10°C° 0 mm 3 m/S 747 mmHg 79%
08:00 +11°C° 0 mm 3 m/S 747 mmHg 77%
09:00 +12°C° 0 mm 4 m/S 746 mmHg 71%
10:00 +14°C° 0 mm 5 m/S 746 mmHg 66%
11:00 +15°C° 0 mm 6 m/S 746 mmHg 61%
12:00 +16°C° 0 mm 6 m/S 746 mmHg 57%
13:00 +17°C° 0 mm 6 m/S 746 mmHg 54%
14:00 +19°C° 0 mm 6 m/S 746 mmHg 50%
15:00 +17°C° 0 mm 5 m/S 745 mmHg 53%
16:00 +17°C° 0 mm 4 m/S 745 mmHg 55%
17:00 +16°C° 0 mm 3 m/S 745 mmHg 57%
18:00 +16°C° 0 mm 3 m/S 745 mmHg 60%
19:00 +14°C° 0 mm 3 m/S 745 mmHg 63%
20:00 +13°C° 0 mm 3 m/S 745 mmHg 65%
21:00 +13°C° 0 mm 3 m/S 745 mmHg 67%
22:00 +13°C° 0 mm 2 m/S 745 mmHg 69%
23:00 +13°C° 0 mm 2 m/S 744 mmHg 70%

14 April, Mittwoch

Zeit Temperatur Niederschläge Wind Luftdruck Luftfeuchtigkeit
00:00 +13°C° 0 mm 2 m/S 744 mmHg 72%
01:00 +12°C° 0 mm 2 m/S 744 mmHg 75%
02:00 +12°C° 0 mm 2 m/S 744 mmHg 77%
03:00 +10°C° 0 mm 2 m/S 744 mmHg 80%
04:00 +10°C° 0 mm 2 m/S 744 mmHg 83%
05:00 +10°C° 0 mm 3 m/S 744 mmHg 86%
06:00 +11°C° 0 mm 3 m/S 744 mmHg 82%
07:00 +11°C° 0 mm 3 m/S 744 mmHg 78%
08:00 +12°C° 0 mm 4 m/S 744 mmHg 74%
09:00 +13°C° 0 mm 4 m/S 744 mmHg 72%
10:00 +14°C° 0 mm 4 m/S 744 mmHg 71%
11:00 +14°C° 0 mm 4 m/S 744 mmHg 69%
12:00 +15°C° 0.1 mm 4 m/S 743 mmHg 68%
13:00 +15°C° 0.1 mm 4 m/S 743 mmHg 67%
14:00 +15°C° 0.1 mm 4 m/S 743 mmHg 66%
15:00 +14°C° 0.2 mm 3 m/S 743 mmHg 72%
16:00 +14°C° 0.2 mm 3 m/S 743 mmHg 77%
17:00 +14°C° 0.2 mm 2 m/S 743 mmHg 82%
18:00 +13°C° 0 mm 2 m/S 743 mmHg 83%
19:00 +13°C° 0 mm 2 m/S 743 mmHg 85%
20:00 +12°C° 0 mm 2 m/S 743 mmHg 86%
21:00 +12°C° 0 mm 2 m/S 742 mmHg 87%
22:00 +12°C° 0 mm 2 m/S 742 mmHg 88%
23:00 +10°C° 0 mm 2 m/S 742 mmHg 88%

15 April, Donnerstag

Zeit Temperatur Niederschläge Wind Luftdruck Luftfeuchtigkeit
00:00 +10°C° 0.1 mm 2 m/S 742 mmHg 89%
01:00 +10°C° 0.1 mm 2 m/S 742 mmHg 89%
02:00 +10°C° 0.1 mm 2 m/S 742 mmHg 89%
03:00 +10°C° 0 mm 2 m/S 742 mmHg 88%
04:00 +10°C° 0 mm 2 m/S 742 mmHg 86%
05:00 +10°C° 0 mm 2 m/S 741 mmHg 84%
06:00 +12°C° 0 mm 1 m/S 741 mmHg 79%
07:00 +13°C° 0 mm 1 m/S 741 mmHg 75%
08:00 +14°C° 0 mm 1 m/S 741 mmHg 70%
09:00 +15°C° 0.1 mm 1 m/S 741 mmHg 64%
10:00 +15°C° 0.1 mm 2 m/S 741 mmHg 58%
11:00 +16°C° 0.1 mm 2 m/S 740 mmHg 52%
12:00 +17°C° 0 mm 3 m/S 740 mmHg 49%
13:00 +17°C° 0 mm 3 m/S 739 mmHg 46%
14:00 +18°C° 0 mm 3 m/S 739 mmHg 43%
15:00 +17°C° 0 mm 3 m/S 738 mmHg 48%
16:00 +15°C° 0 mm 4 m/S 738 mmHg 53%
17:00 +15°C° 0 mm 4 m/S 738 mmHg 58%
18:00 +14°C° 0.1 mm 3 m/S 738 mmHg 63%
19:00 +13°C° 0.1 mm 3 m/S 737 mmHg 68%
20:00 +13°C° 0.1 mm 2 m/S 737 mmHg 73%
21:00 +12°C° 0.3 mm 2 m/S 737 mmHg 78%
22:00 +10°C° 0.3 mm 3 m/S 737 mmHg 82%
23:00 +10°C° 0.3 mm 3 m/S 737 mmHg 87%
Mehr zeigen

Wir brauchen deine Erlaubnis

Meteoprog und unser Service Anbieter werden persönliche Daten aufbewahren, so wie Cookies, Geräte Bezeichnung oder ähnliche Technologien von deinem Gerät und Prozess, so wie Persönliche Daten Inhalte und Werbungen, genauso wie social Media und den Verkehr zu analysieren.

  • Aufbewahrung und/oder Zugang zu deiner Geräte Informationen.

    Cookies, Geräte Bezeichnung oder andere Informationen, können aufbewahrt oder Zugang zu deinem Gerät erhalten, für den Grund, der oben angegeben wird.

  • Personalisierte Werbung und Inhalte, Messungen, Einblick in das Publikum und Produkt Entwicklung.

    Werbungen und Inhalte können personalisiert werden, basierend auf ein Profil. Mehr Daten können besser personalisierte Werbungen und Inhalte hinzufügen. Werbung und Inhalte können gezeigt und gemessen werden. Einblicke über das Publikum, welche die Werbung gesehen haben und den Inhalt, können abgeleitet werden. So wie Daten können genutzt werden, um es zu verbessern oder die Benutzer Erfahrung zu verbessern das System und die Software.

Wenn du “Ich stimme zu” klickst, erlaubst du uns, die Cookies zu benutzen die Geräte Bezeichnung, den Web oder ähnliche Technologien zu benutzen. Deine Settings, können in deinem Gerät bei deinem Browser geändert werden.

Für den bestimmten Zweck, berechtigten Interessen beruhen darauf, mehr als auf den Inhalt. Du kannst mehr darüber in unseren Privaten und Cookie Politik lesen.